GW4305 Weather Reports


time (UTC)temp
F
wind
direction
speed
knots
gust
knots
rain 1hr
in
rain 24hr
in
rain mn
in
humidity
%
barometer
mb
20260503051825 52 275 0.0 0.0 0.00 0.00 0.00 49 1013.6
20260503051321 52 272 0.0 0.0 0.00 0.00 0.00 53 1013.4
20260503050818 52 276 0.0 0.0 0.00 0.00 0.00 56 1013.8
20260503050314 52 274 0.0 0.0 0.00 0.00 0.00 56 1013.6
20260503045812 52 274 0.0 0.0 0.00 0.00 0.00 58 1013.7
20260503045310 52 275 0.0 0.0 0.00 0.00 0.00 58 1013.6
20260503044806 53 273 0.0 0.0 0.00 0.00 0.00 57 1013.6
20260503044303 53 272 0.0 0.0 0.00 0.00 0.00 57 1013.6
20260503043800 54 274 0.0 0.0 0.00 0.00 0.00 56 1013.6
20260503043257 54 269 0.0 0.9 0.00 0.00 0.00 56 1013.6
20260503042753 54 267 0.0 0.0 0.00 0.00 0.00 56 1013.4
20260503042250 54 194 1.7 2.6 0.00 0.00 0.00 56 1013.4
20260503041745 54 266 0.0 0.9 0.00 0.00 0.00 57 1013.4
20260503041243 55 262 0.0 0.0 0.00 0.00 0.00 56 1013.4
20260503040741 55 267 0.0 0.9 0.00 0.00 0.00 55 1013.5
20260503040239 55 238 0.0 1.7 0.00 0.00 0.00 54 1013.5
20260503035735 56 266 0.9 1.7 0.00 0.00 0.00 54 1013.4
20260503035232 56 256 0.0 0.9 0.00 0.00 0.00 54 1013.4
20260503034730 56 270 0.0 0.9 0.00 0.00 0.00 53 1013.4
20260503034226 56 269 0.0 1.7 0.00 0.00 0.00 52 1013.3
20260503033724 57 269 0.0 0.9 0.00 0.00 0.00 52 1013.4
20260503033221 57 278 0.0 0.0 0.00 0.00 0.00 52 1013.3
20260503032720 57 243 0.0 1.7 0.00 0.00 0.00 52 1013.3
20260503032218 57 266 0.0 0.9 0.00 0.00 0.00 51 1013.2
20260503031714 58 261 0.0 0.9 0.00 0.00 0.00 50 1013.4
20260503031213 58 254 0.9 1.7 0.00 0.00 0.00 49 1013.2
20260503030708 58 270 0.0 1.7 0.00 0.00 0.00 49 1013.1
20260503030205 59 278 0.9 1.7 0.00 0.00 0.00 48 1013.2
20260503025702 60 279 0.0 2.6 0.00 0.00 0.00 46 1013.2
20260503025200 60 276 0.0 1.7 0.00 0.00 0.00 45 1013.3
20260503024656 61 9 1.7 1.7 0.00 0.00 0.00 44 1013.1
20260503024154 61 283 0.9 1.7 0.00 0.00 0.00 43 1013.0
20260503023650 62 284 2.6 4.3 0.00 0.00 0.00 43 1012.8
20260503023147 62 270 0.9 1.7 0.00 0.00 0.00 42 1013.1
20260503022644 62 209 0.0 5.2 0.00 0.00 0.00 42 1013.1
20260503022143 62 283 1.7 2.6 0.00 0.00 0.00 42 1013.1
20260503021640 62 293 0.0 1.7 0.00 0.00 0.00 41 1013.0
20260503021136 63 104 0.9 1.7 0.00 0.00 0.00 41 1013.2
20260503020634 63 276 1.7 4.3 0.00 0.00 0.00 40 1013.1
20260503020131 63 226 3.5 5.2 0.00 0.00 0.00 40 1012.8
20260503015628 64 191 0.0 2.6 0.00 0.00 0.00 40 1013.2
20260503015125 64 269 0.9 2.6 0.00 0.00 0.00 39 1013.3
20260503014620 64 167 0.9 2.6 0.00 0.00 0.00 39 1013.4
20260503014118 64 207 0.9 2.6 0.00 0.00 0.00 38 1013.4
20260503013615 64 230 2.6 5.2 0.00 0.00 0.00 38 1013.4
20260503013114 64 18 1.7 5.2 0.00 0.00 0.00 38 1013.5
20260503012611 65 290 0.9 1.7 0.00 0.00 0.00 37 1013.4
20260503012107 65 296 0.9 2.6 0.00 0.00 0.00 37 1013.4
20260503011603 65 126 2.6 2.6 0.00 0.00 0.00 36 1013.7
20260503011101 66 40 0.9 1.7 0.00 0.00 0.00 35 1013.6
20260503010557 66 273 0.9 2.6 0.00 0.00 0.00 34 1013.5
20260503010055 66 301 0.0 1.7 0.00 0.00 0.00 34 1013.6
20260503005551 66 242 0.9 1.7 0.00 0.00 0.00 34 1013.8
20260503005049 67 275 0.0 1.7 0.00 0.00 0.00 33 1013.6
20260503004544 67 285 0.0 0.9 0.00 0.00 0.00 34 1014.0
20260503004043 68 358 0.9 1.7 0.00 0.00 0.00 32 1013.7
20260503003539 68 274 0.9 2.6 0.00 0.00 0.00 32 1014.0
20260503003037 68 227 0.9 1.7 0.00 0.00 0.00 30 1013.7
20260503002533 68 231 0.0 1.7 0.00 0.00 0.00 32 1013.7
20260503002030 69 278 0.0 1.7 0.00 0.00 0.00 30 1014.0
20260503001527 70 228 0.0 1.7 0.00 0.00 0.00 30 1014.0
20260503001024 69 252 0.0 0.9 0.00 0.00 0.00 33 1014.0
20260503000522 69 268 0.9 1.7 0.00 0.00 0.00 33 1014.0
20260503000018 69 205 0.0 1.7 0.00 0.00 0.00 31 1013.8
20260502235515 69 266 0.9 4.3 0.00 0.00 0.00 31 1014.2
20260502235013 70 278 0.0 1.7 0.00 0.00 0.00 30 1014.0
20260502234509 71 281 0.0 0.9 0.00 0.00 0.00 31 1014.1
20260502234007 69 279 0.0 0.9 0.00 0.00 0.00 30 1014.4
20260502233506 68 281 0.0 0.9 0.00 0.00 0.00 31 1014.3
20260502233004 70 293 0.0 2.6 0.00 0.00 0.00 30 1014.3
20260502232500 69 346 0.9 0.9 0.00 0.00 0.00 30 1014.6
20260502231957 70 239 0.9 1.7 0.00 0.00 0.00 30 1014.3
20260502231454 69 284 0.9 2.6 0.00 0.00 0.00 30 1014.6
20260502230952 68 274 0.0 2.6 0.00 0.00 0.00 32 1014.7
20260502230450 68 249 0.9 2.6 0.00 0.00 0.00 32 1014.8
20260502225948 68 23 0.0 4.3 0.00 0.00 0.00 33 1014.7
20260502225444 68 259 0.9 1.7 0.00 0.00 0.00 32 1014.8
20260502224941 69 252 2.6 2.6 0.00 0.00 0.00 31 1015.0
20260502224437 69 183 0.9 0.9 0.00 0.00 0.00 34 1014.8
20260502223934 68 150 1.7 2.6 0.00 0.00 0.00 33 1015.2
20260502223432 68 271 0.9 5.2 0.00 0.00 0.00 33 1015.2
20260502222930 69 244 2.6 4.3 0.00 0.00 0.00 32 1015.3
20260502222427 69 279 0.9 1.7 0.00 0.00 0.00 34 1015.4
20260502221922 68 170 1.7 4.3 0.00 0.00 0.00 33 1015.4
20260502221419 68 201 1.7 5.2 0.00 0.00 0.00 33 1015.5
20260502220916 68 275 0.9 2.6 0.00 0.00 0.00 33 1015.6
20260502220412 69 233 0.0 0.9 0.00 0.00 0.00 35 1015.6
20260502215909 69 289 0.9 2.6 0.00 0.00 0.00 33 1015.6
20260502215406 68 332 0.9 4.3 0.00 0.00 0.00 33 1015.5
20260502214902 68 235 2.6 5.2 0.00 0.00 0.00 34 1015.8
20260502214359 67 145 0.9 2.6 0.00 0.00 0.00 35 1016.0
20260502213856 65 153 0.9 2.6 0.00 0.00 0.00 40 1016.1
20260502213353 64 78 0.0 1.7 0.00 0.00 0.00 37 1016.1
20260502212852 67 319 0.9 2.6 0.00 0.00 0.00 35 1016.3
20260502212350 66 186 0.9 4.3 0.00 0.00 0.00 37 1016.3
20260502211847 67 14 0.9 2.6 0.00 0.00 0.00 34 1016.5
20260502211343 68 140 2.6 2.6 0.00 0.00 0.00 35 1016.4
20260502210840 68 77 0.9 4.3 0.00 0.00 0.00 35 1016.5
20260502210337 67 167 0.0 1.7 0.00 0.00 0.00 35 1016.6
20260502205834 66 171 0.9 2.6 0.00 0.00 0.00 38 1016.7
20260502205330 67 78 0.9 1.7 0.00 0.00 0.00 34 1016.8
20260502204828 67 107 1.7 2.6 0.00 0.00 0.00 35 1016.8
20260502204325 65 283 0.9 5.2 0.00 0.00 0.00 35 1016.8
20260502203822 66 65 0.9 2.6 0.00 0.00 0.00 39 1017.1
20260502203320 66 308 0.9 0.9 0.00 0.00 0.00 36 1017.2
20260502202815 64 278 0.0 2.6 0.00 0.00 0.00 38 1017.2
20260502202313 64 250 0.0 4.3 0.00 0.00 0.00 37 1017.3
20260502201811 63 79 1.7 2.6 0.00 0.00 0.00 39 1017.3
20260502201306 64 110 0.9 2.6 0.00 0.00 0.00 39 1017.5
20260502200803 65 109 0.9 5.2 0.00 0.00 0.00 38 1017.5
20260502200259 66 186 1.7 2.6 0.00 0.00 0.00 38 1017.6
20260502195757 66 302 0.0 1.7 0.00 0.00 0.00 36 1018.0
20260502195253 63 150 2.6 4.3 0.00 0.00 0.00 39 1017.7
20260502194750 64 281 1.7 2.6 0.00 0.00 0.00 37 1017.8
20260502194247 66 213 0.0 2.6 0.00 0.00 0.00 35 1017.7
20260502193743 66 66 0.9 4.3 0.00 0.00 0.00 35 1018.1
20260502193240 63 335 0.0 0.9 0.00 0.00 0.00 40 1018.2
20260502192735 62 261 1.7 5.2 0.00 0.00 0.00 42 1018.2
20260502192233 64 78 1.7 4.3 0.00 0.00 0.00 40 1018.1
20260502191729 63 115 2.6 6.1 0.00 0.00 0.00 40 1018.1
20260502191227 63 189 0.9 0.9 0.00 0.00 0.00 41 1018.4
20260502190724 62 132 0.9 6.1 0.00 0.00 0.00 44 1018.3
20260502190222 63 24 1.7 2.6 0.00 0.00 0.00 43 1018.5
20260502185721 62 280 0.9 2.6 0.00 0.00 0.00 42 1018.6
20260502185218 62 99 0.9 1.7 0.00 0.00 0.00 42 1018.5
20260502184714 63 87 0.9 1.7 0.00 0.00 0.00 41 1018.7
20260502184210 60 257 0.0 1.7 0.00 0.00 0.00 44 1018.8
20260502183707 60 62 2.6 4.3 0.00 0.00 0.00 43 1018.8
20260502183203 61 83 1.7 5.2 0.00 0.00 0.00 42 1019.0
20260502182658 60 198 1.7 2.6 0.00 0.00 0.00 44 1018.8
20260502182154 60 79 1.7 5.2 0.00 0.00 0.00 44 1019.1
20260502181651 61 42 0.9 4.3 0.00 0.00 0.00 42 1019.3
20260502181150 60 96 4.3 7.0 0.00 0.00 0.00 42 1019.3
20260502180647 60 119 1.7 7.0 0.00 0.00 0.00 45 1019.3
20260502180144 60 67 0.9 2.6 0.00 0.00 0.00 43 1019.4
20260502170108 58 346 1.7 2.6 0.00 0.00 0.00 46 1020.1
20260502164055 58 145 1.7 1.7 0.00 0.00 0.00 47 1020.3
20260502163551 57 307 0.0 2.6 0.00 0.00 0.00 48 1020.2
20260502163048 57 46 0.9 0.9 0.00 0.00 0.00 46 1020.5
20260502162544 56 60 2.6 4.3 0.00 0.00 0.00 49 1020.4
20260502162042 58 84 0.9 2.6 0.00 0.00 0.00 48 1020.4
20260502161538 57 303 0.0 1.7 0.00 0.00 0.00 49 1020.4
20260502161036 55 47 0.0 0.9 0.00 0.00 0.00 52 1020.3
20260502160534 54 139 0.9 1.7 0.00 0.00 0.00 54 1020.3
20260502151947 53 269 0.0 0.0 0.00 0.00 0.00 54 1020.7
20260502151443 53 269 0.0 0.0 0.00 0.00 0.00 54 1020.4
20260502150941 53 258 0.0 0.0 0.00 0.00 0.00 55 1020.6
20260502150437 52 276 0.0 0.0 0.00 0.00 0.00 57 1020.5
20260502130323 47 281 0.0 0.0 0.00 0.00 0.00 69 1020.2
20260502123809 47 277 0.0 0.0 0.00 0.00 0.00 69 1020.1
20260502123306 47 273 0.0 0.9 0.00 0.00 0.00 69 1020.2
20260502122802 47 284 0.0 0.0 0.00 0.00 0.00 70 1020.2
20260502122258 46 277 0.0 0.0 0.00 0.00 0.00 70 1020.3
20260502121757 46 283 0.0 0.0 0.00 0.00 0.00 70 1020.1
20260502121254 46 295 0.0 0.0 0.00 0.00 0.00 70 1020.1
20260502120751 47 289 0.0 0.0 0.00 0.00 0.00 70 1020.1
20260502120248 47 281 0.0 0.0 0.00 0.00 0.00 69 1020.1
20260502115746 47 319 0.0 0.0 0.00 0.00 0.00 69 1020.1
20260502115242 47 319 0.0 0.0 0.00 0.00 0.00 68 1020.2
20260502114738 47 319 0.0 0.0 0.00 0.00 0.00 68 1020.0
20260502114235 47 280 0.0 0.0 0.00 0.00 0.00 68 1020.2
20260502113732 47 278 0.0 0.0 0.00 0.00 0.00 68 1020.1
20260502113230 47 272 0.0 0.0 0.00 0.00 0.00 67 1020.3
20260502112728 48 280 0.0 0.0 0.00 0.00 0.00 67 1020.0
20260502112225 48 283 0.0 0.0 0.00 0.00 0.00 67 1020.1
20260502111722 48 282 0.0 0.0 0.00 0.00 0.00 67 1020.0
20260502111220 48 260 0.0 0.0 0.00 0.00 0.00 67 1020.0
20260502110717 48 273 0.0 0.0 0.00 0.00 0.00 67 1020.0
20260502110215 48 276 0.0 0.0 0.00 0.00 0.00 66 1020.1
20260502105713 48 276 0.0 0.0 0.00 0.00 0.00 66 1020.0
20260502105209 48 269 0.0 0.9 0.00 0.00 0.00 66 1020.1
20260502104706 48 277 0.0 0.0 0.00 0.00 0.00 67 1020.3
20260502104204 49 274 0.0 0.0 0.00 0.00 0.00 66 1020.1
20260502103701 49 275 0.0 0.0 0.00 0.00 0.00 66 1020.1
20260502103159 49 279 0.0 0.0 0.00 0.00 0.00 65 1020.1
20260502102655 49 278 0.0 0.0 0.00 0.00 0.00 64 1019.8
20260502102152 50 282 0.0 0.9 0.00 0.00 0.00 64 1020.0
20260502101650 49 272 0.0 0.0 0.00 0.00 0.00 64 1020.0
20260502101148 50 274 0.0 0.0 0.00 0.00 0.00 64 1020.0
20260502100646 49 265 0.0 0.9 0.00 0.00 0.00 64 1020.0
20260502100144 49 272 0.0 0.0 0.00 0.00 0.00 64 1020.0
20260502091118 49 322 0.0 0.0 0.00 0.00 0.00 65 1019.8
20260502090615 50 321 0.0 0.9 0.00 0.00 0.00 64 1019.8
20260502090113 50 278 0.0 0.0 0.00 0.00 0.00 64 1019.7
20260502071510 50 274 0.0 0.0 0.00 0.00 0.00 61 1019.5
20260502071008 50 326 0.0 0.0 0.00 0.00 0.00 61 1019.6
20260502070506 50 290 0.9 0.9 0.00 0.00 0.00 61 1019.6
20260502070004 50 262 0.0 0.0 0.00 0.00 0.00 62 1019.7
20260502065502 50 262 0.0 0.9 0.00 0.00 0.00 62 1019.7
20260502065000 50 286 0.9 1.7 0.00 0.00 0.00 62 1019.6
20260502064458 50 280 0.0 0.0 0.00 0.00 0.00 62 1019.7
20260502063954 50 277 0.0 0.9 0.00 0.00 0.00 62 1019.6
20260502063452 50 278 0.0 0.0 0.00 0.00 0.00 62 1019.6
20260502062949 50 281 0.0 0.9 0.00 0.00 0.00 61 1019.5
20260502062446 51 280 0.0 0.0 0.00 0.00 0.00 61 1019.4
20260502061945 51 285 0.0 0.9 0.00 0.00 0.00 61 1019.4
20260502061442 51 277 0.0 0.0 0.00 0.00 0.00 62 1019.7
20260502060938 51 272 0.0 0.0 0.00 0.00 0.00 61 1019.5
20260502060434 51 271 0.0 0.0 0.00 0.00 0.00 60 1019.4
20260502055931 52 269 0.0 0.9 0.00 0.00 0.00 58 1019.4
20260502055429 52 280 0.0 0.9 0.00 0.00 0.00 57 1019.5
20260502054928 52 272 0.0 0.0 0.00 0.00 0.00 56 1019.5
20260502054426 52 275 0.0 0.0 0.00 0.00 0.00 56 1019.4
20260502053923 53 272 0.0 0.0 0.00 0.00 0.00 56 1019.2
20260502053420 53 267 0.0 0.0 0.00 0.00 0.00 55 1019.3
20260502052918 53 265 0.0 0.9 0.00 0.00 0.00 55 1019.3
20260502052416 53 278 0.0 0.9 0.00 0.00 0.00 55 1019.3